Time,TemperatureF,DewpointF,PressureIn,WindDirection,WindDirectionDegrees,WindSpeedMPH,WindSpeedGustMPH,Humidity,HourlyPrecipIn,Conditions,Clouds,dailyrainin,SoftwareType,DateUTC
2013-03-01 00:02:00,40.0,-99.9,29.66,NW,325,8.0,16.0,-999,-99.99,,,-99.99,,2013-03-01 05:02:00,
2013-03-01 00:11:00,40.0,-99.9,29.66,NW,319,9.0,15.0,-999,-99.99,,,-99.99,,2013-03-01 05:11:00,
2013-03-01 00:22:00,40.0,-99.9,29.66,NW,322,10.0,13.0,-999,-99.99,,,-99.99,,2013-03-01 05:22:00,
2013-03-01 00:33:00,40.0,-99.9,29.66,NW,316,9.0,13.0,-999,-99.99,,,-99.99,,2013-03-01 05:33:00,
2013-03-01 00:42:00,39.0,-99.9,29.66,NW,314,9.0,13.0,-999,-99.99,,,-99.99,,2013-03-01 05:42:00,
2013-03-01 00:53:00,39.0,-99.9,29.66,NW,313,9.0,14.0,-999,-99.99,,,-99.99,,2013-03-01 05:53:00,
2013-03-01 01:02:00,39.0,-99.9,29.66,NW,305,12.0,15.0,-999,-99.99,,,-99.99,,2013-03-01 06:02:00,
2013-03-01 01:12:00,39.0,-99.9,29.67,NW,304,12.0,17.0,-999,-99.99,,,-99.99,,2013-03-01 06:12:00,
2013-03-01 01:22:00,39.0,-99.9,29.67,NW,305,12.0,15.0,-999,-99.99,,,-99.99,,2013-03-01 06:22:00,
2013-03-01 01:32:00,39.0,-99.9,29.67,NW,304,12.0,15.0,-999,-99.99,,,-99.99,,2013-03-01 06:32:00,
2013-03-01 01:43:00,39.0,-99.9,29.66,WNW,303,15.0,19.0,-999,-99.99,,,-99.99,,2013-03-01 06:43:00,
2013-03-01 01:53:00,39.0,-99.9,29.67,WNW,299,15.0,18.0,-999,-99.99,,,-99.99,,2013-03-01 06:53:00,
2013-03-01 02:02:00,39.0,-99.9,29.67,WNW,297,15.0,19.0,-999,-99.99,,,-99.99,,2013-03-01 07:02:00,
2013-03-01 02:12:00,39.0,-99.9,29.67,WNW,300,15.0,19.0,-999,-99.99,,,-99.99,,2013-03-01 07:12:00,
2013-03-01 02:22:00,39.0,-99.9,29.67,WNW,303,13.0,19.0,-999,-99.99,,,-99.99,,2013-03-01 07:22:00,
2013-03-01 02:33:00,39.0,-99.9,29.67,NW,305,16.0,19.0,-999,-99.99,,,-99.99,,2013-03-01 07:33:00,
2013-03-01 02:42:00,39.0,-99.9,29.67,NW,306,16.0,22.0,-999,-99.99,,,-99.99,,2013-03-01 07:42:00,
2013-03-01 02:52:00,39.0,-99.9,29.67,NW,308,15.0,21.0,-999,-99.99,,,-99.99,,2013-03-01 07:52:00,
2013-03-01 03:02:00,39.0,-99.9,29.67,NW,307,15.0,20.0,-999,-99.99,,,-99.99,,2013-03-01 08:02:00,
2013-03-01 03:12:00,39.0,-99.9,29.67,NW,309,16.0,23.0,-999,-99.99,,,-99.99,,2013-03-01 08:12:00,
2013-03-01 03:22:00,39.0,-99.9,29.67,NW,309,15.0,19.0,-999,-99.99,,,-99.99,,2013-03-01 08:22:00,
2013-03-01 03:33:00,39.0,-99.9,29.67,NW,310,17.0,22.0,-999,-99.99,,,-99.99,,2013-03-01 08:33:00,
2013-03-01 03:43:00,39.0,-99.9,29.67,NW,309,15.0,20.0,-999,-99.99,,,-99.99,,2013-03-01 08:43:00,
2013-03-01 03:53:00,39.0,-99.9,29.67,NW,308,15.0,19.0,-999,-99.99,,,-99.99,,2013-03-01 08:53:00,
2013-03-01 04:02:00,39.0,-99.9,29.68,NW,309,16.0,21.0,-999,-99.99,,,-99.99,,2013-03-01 09:02:00,
2013-03-01 04:12:00,39.0,-99.9,29.68,NW,310,15.0,20.0,-999,-99.99,,,-99.99,,2013-03-01 09:12:00,
2013-03-01 04:22:00,39.0,-99.9,29.69,NW,312,15.0,21.0,-999,-99.99,,,-99.99,,2013-03-01 09:22:00,
2013-03-01 04:32:00,39.0,-99.9,29.69,NW,314,15.0,21.0,-999,-99.99,,,-99.99,,2013-03-01 09:32:00,
2013-03-01 04:42:00,39.0,-99.9,29.69,NW,313,15.0,22.0,-999,-99.99,,,-99.99,,2013-03-01 09:42:00,
2013-03-01 04:53:00,39.0,-99.9,29.69,NW,317,15.0,21.0,-999,-99.99,,,-99.99,,2013-03-01 09:53:00,
2013-03-01 05:02:00,39.0,-99.9,29.69,NW,317,13.0,20.0,-999,-99.99,,,-99.99,,2013-03-01 10:02:00,
2013-03-01 05:12:00,39.0,-99.9,29.69,NW,317,12.0,18.0,-999,-99.99,,,-99.99,,2013-03-01 10:12:00,
2013-03-01 05:22:00,39.0,-99.9,29.70,NW,316,14.0,21.0,-999,-99.99,,,-99.99,,2013-03-01 10:22:00,
2013-03-01 05:32:00,39.0,-99.9,29.70,NW,315,13.0,19.0,-999,-99.99,,,-99.99,,2013-03-01 10:32:00,
2013-03-01 05:42:00,39.0,-99.9,29.69,NW,319,12.0,21.0,-999,-99.99,,,-99.99,,2013-03-01 10:42:00,
2013-03-01 05:53:00,39.0,-99.9,29.69,NNW,329,13.0,18.0,-999,-99.99,,,-99.99,,2013-03-01 10:53:00,
2013-03-01 06:02:00,39.0,-99.9,29.69,NNW,335,11.0,21.0,-999,-99.99,,,-99.99,,2013-03-01 11:02:00,
2013-03-01 06:12:00,39.0,-99.9,29.69,NNW,330,11.0,17.0,-999,-99.99,,,-99.99,,2013-03-01 11:12:00,
2013-03-01 06:23:00,39.0,-99.9,29.69,NW,324,11.0,18.0,-999,-99.99,,,-99.99,,2013-03-01 11:23:00,
2013-03-01 06:32:00,39.0,-99.9,29.70,NNW,327,11.0,17.0,-999,-99.99,,,-99.99,,2013-03-01 11:32:00,
2013-03-01 06:42:00,39.0,-99.9,29.70,NW,320,10.0,18.0,-999,-99.99,,,-99.99,,2013-03-01 11:42:00,
2013-03-01 06:53:00,39.0,-99.9,29.70,NW,319,10.0,17.0,-999,-99.99,,,-99.99,,2013-03-01 11:53:00,
2013-03-01 07:02:00,39.0,-99.9,29.70,NW,322,10.0,16.0,-999,-99.99,,,-99.99,,2013-03-01 12:02:00,
2013-03-01 07:11:00,39.0,-99.9,29.70,NW,324,9.0,14.0,-999,-99.99,,,-99.99,,2013-03-01 12:11:00,
2013-03-01 07:22:00,39.0,-99.9,29.71,NW,318,12.0,19.0,-999,-99.99,,,-99.99,,2013-03-01 12:22:00,
2013-03-01 07:33:00,39.0,-99.9,29.71,NW,318,11.0,17.0,-999,-99.99,,,-99.99,,2013-03-01 12:33:00,
2013-03-01 07:42:00,40.0,-99.9,29.72,NW,319,11.0,17.0,-999,-99.99,,,-99.99,,2013-03-01 12:42:00,
2013-03-01 07:52:00,41.0,-99.9,29.72,NW,321,9.0,15.0,-999,-99.99,,,-99.99,,2013-03-01 12:52:00,
2013-03-01 08:01:00,40.0,-99.9,29.73,NW,322,15.0,21.0,-999,-99.99,,,-99.99,,2013-03-01 13:01:00,
2013-03-01 08:12:00,40.0,-99.9,29.73,NW,323,16.0,20.0,-999,-99.99,,,-99.99,,2013-03-01 13:12:00,
2013-03-01 08:22:00,40.0,-99.9,29.73,NNW,327,15.0,20.0,-999,-99.99,,,-99.99,,2013-03-01 13:22:00,
2013-03-01 08:32:00,40.0,-99.9,29.74,NW,323,15.0,19.0,-999,-99.99,,,-99.99,,2013-03-01 13:32:00,
2013-03-01 08:42:00,41.0,-99.9,29.74,NW,325,13.0,17.0,-999,-99.99,,,-99.99,,2013-03-01 13:42:00,
2013-03-01 08:52:00,41.0,-99.9,29.74,NW,325,13.0,17.0,-999,-99.99,,,-99.99,,2013-03-01 13:52:00,
2013-03-01 09:02:00,41.0,-99.9,29.74,NW,322,13.0,17.0,-999,-99.99,,,-99.99,,2013-03-01 14:02:00,
2013-03-01 09:12:00,41.0,-99.9,29.75,NW,324,16.0,19.0,-999,-99.99,,,-99.99,,2013-03-01 14:12:00,
2013-03-01 09:22:00,41.0,-99.9,29.75,NNW,329,13.0,17.0,-999,-99.99,,,-99.99,,2013-03-01 14:22:00,
2013-03-01 09:32:00,41.0,-99.9,29.74,NNW,330,15.0,20.0,-999,-99.99,,,-99.99,,2013-03-01 14:32:00,
2013-03-01 09:42:00,41.0,-99.9,29.74,NNW,327,14.0,18.0,-999,-99.99,,,-99.99,,2013-03-01 14:42:00,
2013-03-01 09:52:00,42.0,-99.9,29.74,NW,324,14.0,18.0,-999,-99.99,,,-99.99,,2013-03-01 14:52:00,
2013-03-01 10:02:00,42.0,-99.9,29.74,NW,323,15.0,18.0,-999,-99.99,,,-99.99,,2013-03-01 15:02:00,
2013-03-01 10:11:00,42.0,-99.9,29.74,NNW,327,15.0,18.0,-999,-99.99,,,-99.99,,2013-03-01 15:11:00,
2013-03-01 10:21:00,42.0,-99.9,29.74,NW,324,14.0,16.0,-999,-99.99,,,-99.99,,2013-03-01 15:21:00,
2013-03-01 10:32:00,42.0,-99.9,29.74,NNW,327,14.0,18.0,-999,-99.99,,,-99.99,,2013-03-01 15:32:00,
2013-03-01 10:42:00,42.0,-99.9,29.73,NW,325,15.0,18.0,-999,-99.99,,,-99.99,,2013-03-01 15:42:00,
2013-03-01 10:52:00,41.0,-99.9,29.73,NW,323,15.0,19.0,-999,-99.99,,,-99.99,,2013-03-01 15:52:00,
2013-03-01 11:01:00,41.0,-99.9,29.73,NW,313,9.0,15.0,-999,-99.99,,,-99.99,,2013-03-01 16:01:00,
2013-03-01 11:11:00,42.0,-99.9,29.74,NW,326,7.0,16.0,-999,-99.99,,,-99.99,,2013-03-01 16:11:00,
2013-03-01 11:22:00,42.0,-99.9,29.74,NNW,327,7.0,12.0,-999,-99.99,,,-99.99,,2013-03-01 16:22:00,
2013-03-01 11:32:00,42.0,-99.9,29.74,NW,325,16.0,19.0,-999,-99.99,,,-99.99,,2013-03-01 16:32:00,
2013-03-01 11:42:00,42.0,-99.9,29.74,NW,325,16.0,19.0,-999,-99.99,,,-99.99,,2013-03-01 16:42:00,
2013-03-01 11:52:00,42.0,-99.9,29.74,NW,325,16.0,19.0,-999,-99.99,,,-99.99,,2013-03-01 16:52:00,
2013-03-01 12:01:00,42.0,-99.9,29.74,NW,325,16.0,19.0,-999,-99.99,,,-99.99,,2013-03-01 17:01:00,
2013-03-01 12:32:00,42.0,-99.9,29.75,NNW,329,12.0,16.0,-999,-99.99,,,-99.99,,2013-03-01 17:32:00,
2013-03-01 12:42:00,42.0,-99.9,29.74,NNW,332,9.0,12.0,-999,-99.99,,,-99.99,,2013-03-01 17:42:00,
2013-03-01 12:52:00,42.0,-99.9,29.74,NNW,333,9.0,12.0,-999,-99.99,,,-99.99,,2013-03-01 17:52:00,
2013-03-01 13:02:00,42.0,-99.9,29.74,NNW,332,8.0,11.0,-999,-99.99,,,-99.99,,2013-03-01 18:02:00,
2013-03-01 13:12:00,42.0,-99.9,29.74,NNW,332,9.0,11.0,-999,-99.99,,,-99.99,,2013-03-01 18:12:00,
2013-03-01 13:22:00,42.0,-99.9,29.74,NNW,329,7.0,9.0,-999,-99.99,,,-99.99,,2013-03-01 18:22:00,
2013-03-01 13:32:00,42.0,-99.9,29.74,NNW,330,7.0,9.0,-999,-99.99,,,-99.99,,2013-03-01 18:32:00,
2013-03-01 13:42:00,42.0,-99.9,29.74,NNW,329,8.0,11.0,-999,-99.99,,,-99.99,,2013-03-01 18:42:00,
2013-03-01 13:52:00,42.0,-99.9,29.74,NW,326,9.0,11.0,-999,-99.99,,,-99.99,,2013-03-01 18:52:00,
2013-03-01 14:02:00,42.0,-99.9,29.74,NW,321,9.0,10.0,-999,-99.99,,,-99.99,,2013-03-01 19:02:00,
2013-03-01 14:11:00,41.0,-99.9,29.73,NW,322,8.0,10.0,-999,-99.99,,,-99.99,,2013-03-01 19:11:00,
2013-03-01 14:22:00,41.0,-99.9,29.74,NW,313,6.0,8.0,-999,-99.99,,,-99.99,,2013-03-01 19:22:00,
2013-03-01 14:32:00,41.0,-99.9,29.74,NW,313,7.0,9.0,-999,-99.99,,,-99.99,,2013-03-01 19:32:00,
2013-03-01 14:42:00,41.0,-99.9,29.74,NW,313,7.0,9.0,-999,-99.99,,,-99.99,,2013-03-01 19:42:00,
2013-03-01 14:52:00,42.0,-99.9,29.73,NW,310,6.0,8.0,-999,-99.99,,,-99.99,,2013-03-01 19:52:00,
2013-03-01 15:01:00,42.0,-99.9,29.73,NW,310,8.0,10.0,-999,-99.99,,,-99.99,,2013-03-01 20:01:00,
2013-03-01 15:11:00,41.0,-99.9,29.73,NW,314,7.0,9.0,-999,-99.99,,,-99.99,,2013-03-01 20:11:00,
2013-03-01 15:22:00,41.0,-99.9,29.73,NW,310,7.0,9.0,-999,-99.99,,,-99.99,,2013-03-01 20:22:00,
2013-03-01 15:32:00,41.0,-99.9,29.73,NW,312,8.0,9.0,-999,-99.99,,,-99.99,,2013-03-01 20:32:00,
2013-03-01 15:42:00,41.0,-99.9,29.73,NW,315,8.0,9.0,-999,-99.99,,,-99.99,,2013-03-01 20:42:00,
2013-03-01 15:52:00,41.0,-99.9,29.74,NW,314,9.0,11.0,-999,-99.99,,,-99.99,,2013-03-01 20:52:00,
2013-03-01 16:02:00,41.0,-99.9,29.74,NW,316,9.0,12.0,-999,-99.99,,,-99.99,,2013-03-01 21:02:00,
2013-03-01 16:11:00,41.0,-99.9,29.74,NW,322,10.0,12.0,-999,-99.99,,,-99.99,,2013-03-01 21:11:00,
2013-03-01 16:22:00,41.0,-99.9,29.74,NW,323,11.0,13.0,-999,-99.99,,,-99.99,,2013-03-01 21:22:00,
2013-03-01 16:32:00,41.0,-99.9,29.74,NW,325,11.0,12.0,-999,-99.99,,,-99.99,,2013-03-01 21:32:00,
2013-03-01 16:42:00,41.0,-99.9,29.74,NNW,327,11.0,14.0,-999,-99.99,,,-99.99,,2013-03-01 21:42:00,
2013-03-01 16:52:00,41.0,-99.9,29.74,NW,322,11.0,14.0,-999,-99.99,,,-99.99,,2013-03-01 21:52:00,
2013-03-01 17:01:00,41.0,-99.9,29.74,NW,319,11.0,13.0,-999,-99.99,,,-99.99,,2013-03-01 22:01:00,
2013-03-01 17:12:00,41.0,-99.9,29.74,NW,310,12.0,15.0,-999,-99.99,,,-99.99,,2013-03-01 22:12:00,
2013-03-01 17:22:00,41.0,-99.9,29.75,NW,316,13.0,16.0,-999,-99.99,,,-99.99,,2013-03-01 22:22:00,
2013-03-01 17:32:00,41.0,-99.9,29.75,NW,313,12.0,14.0,-999,-99.99,,,-99.99,,2013-03-01 22:32:00,
2013-03-01 17:42:00,41.0,-99.9,29.75,NW,307,11.0,13.0,-999,-99.99,,,-99.99,,2013-03-01 22:42:00,
2013-03-01 17:52:00,41.0,-99.9,29.75,NW,304,10.0,12.0,-999,-99.99,,,-99.99,,2013-03-01 22:52:00,
2013-03-01 18:01:00,41.0,-99.9,29.75,WNW,303,8.0,13.0,-999,-99.99,,,-99.99,,2013-03-01 23:01:00,
2013-03-01 18:11:00,41.0,-99.9,29.76,NW,307,9.0,11.0,-999,-99.99,,,-99.99,,2013-03-01 23:11:00,
2013-03-01 18:21:00,41.0,-99.9,29.76,NW,305,9.0,11.0,-999,-99.99,,,-99.99,,2013-03-01 23:21:00,
2013-03-01 18:32:00,41.0,-99.9,29.76,NW,321,7.0,12.0,-999,-99.99,,,-99.99,,2013-03-01 23:32:00,
2013-03-01 18:42:00,41.0,-99.9,29.77,NW,322,10.0,13.0,-999,-99.99,,,-99.99,,2013-03-01 23:42:00,
2013-03-01 18:52:00,41.0,-99.9,29.77,NW,324,14.0,16.0,-999,-99.99,,,-99.99,,2013-03-01 23:52:00,
2013-03-01 19:02:00,41.0,-99.9,29.77,NW,321,13.0,17.0,-999,-99.99,,,-99.99,,2013-03-02 00:02:00,
2013-03-01 19:12:00,41.0,-99.9,29.77,NNW,328,14.0,17.0,-999,-99.99,,,-99.99,,2013-03-02 00:12:00,
2013-03-01 19:22:00,41.0,-99.9,29.77,NW,326,12.0,14.0,-999,-99.99,,,-99.99,,2013-03-02 00:22:00,
2013-03-01 19:32:00,41.0,-99.9,29.77,NW,326,13.0,16.0,-999,-99.99,,,-99.99,,2013-03-02 00:32:00,
2013-03-01 19:42:00,41.0,-99.9,29.77,NW,324,13.0,16.0,-999,-99.99,,,-99.99,,2013-03-02 00:42:00,
2013-03-01 19:52:00,41.0,-99.9,29.77,NW,321,13.0,17.0,-999,-99.99,,,-99.99,,2013-03-02 00:52:00,
2013-03-01 20:01:00,41.0,-99.9,29.77,NW,321,13.0,16.0,-999,-99.99,,,-99.99,,2013-03-02 01:01:00,
2013-03-01 20:11:00,41.0,-99.9,29.77,NW,321,13.0,15.0,-999,-99.99,,,-99.99,,2013-03-02 01:11:00,
2013-03-01 20:21:00,41.0,-99.9,29.78,NW,311,12.0,15.0,-999,-99.99,,,-99.99,,2013-03-02 01:21:00,
2013-03-01 20:32:00,40.0,-99.9,29.78,NW,309,13.0,16.0,-999,-99.99,,,-99.99,,2013-03-02 01:32:00,
2013-03-01 20:42:00,40.0,-99.9,29.78,NW,309,13.0,16.0,-999,-99.99,,,-99.99,,2013-03-02 01:42:00,
2013-03-01 20:52:00,40.0,-99.9,29.79,NW,304,13.0,16.0,-999,-99.99,,,-99.99,,2013-03-02 01:52:00,
2013-03-01 21:01:00,40.0,-99.9,29.79,WNW,301,13.0,17.0,-999,-99.99,,,-99.99,,2013-03-02 02:01:00,
2013-03-01 21:11:00,40.0,-99.9,29.79,WNW,302,13.0,16.0,-999,-99.99,,,-99.99,,2013-03-02 02:11:00,
2013-03-01 21:22:00,40.0,-99.9,29.80,WNW,300,13.0,17.0,-999,-99.99,,,-99.99,,2013-03-02 02:22:00,
2013-03-01 21:32:00,40.0,-99.9,29.80,NW,306,13.0,17.0,-999,-99.99,,,-99.99,,2013-03-02 02:32:00,
2013-03-01 21:42:00,40.0,-99.9,29.80,NW,306,11.0,15.0,-999,-99.99,,,-99.99,,2013-03-02 02:42:00,
2013-03-01 21:52:00,40.0,-99.9,29.80,NW,312,10.0,14.0,-999,-99.99,,,-99.99,,2013-03-02 02:52:00,
2013-03-01 22:02:00,39.0,-99.9,29.80,NW,314,9.0,15.0,-999,-99.99,,,-99.99,,2013-03-02 03:02:00,
2013-03-01 22:11:00,40.0,-99.9,29.80,NW,321,8.0,14.0,-999,-99.99,,,-99.99,,2013-03-02 03:11:00,
2013-03-01 22:22:00,40.0,-99.9,29.80,NW,325,7.0,12.0,-999,-99.99,,,-99.99,,2013-03-02 03:22:00,
2013-03-01 22:32:00,40.0,-99.9,29.80,NW,325,7.0,10.0,-999,-99.99,,,-99.99,,2013-03-02 03:32:00,
2013-03-01 22:42:00,40.0,-99.9,29.80,NW,326,5.0,10.0,-999,-99.99,,,-99.99,,2013-03-02 03:42:00,
2013-03-01 22:53:00,40.0,-99.9,29.80,NW,322,5.0,9.0,-999,-99.99,,,-99.99,,2013-03-02 03:53:00,
2013-03-01 23:02:00,40.0,-99.9,29.81,NW,326,5.0,10.0,-999,-99.99,,,-99.99,,2013-03-02 04:02:00,
2013-03-01 23:12:00,40.0,-99.9,29.81,NNW,334,4.0,9.0,-999,-99.99,,,-99.99,,2013-03-02 04:12:00,
2013-03-01 23:22:00,40.0,-99.9,29.80,NNW,329,5.0,9.0,-999,-99.99,,,-99.99,,2013-03-02 04:22:00,
2013-03-01 23:32:00,40.0,-99.9,29.80,NNW,334,5.0,10.0,-999,-99.99,,,-99.99,,2013-03-02 04:32:00,
2013-03-01 23:42:00,40.0,-99.9,29.80,NNW,337,5.0,12.0,-999,-99.99,,,-99.99,,2013-03-02 04:42:00,
2013-03-01 23:52:00,40.0,-99.9,29.80,NNW,339,4.0,9.0,-999,-99.99,,,-99.99,,2013-03-02 04:52:00,